2021/05/09 23:29:59+0000,-41.41,-46.87,-33.10,-48.59,-53.69,-55.39
2021/05/09 23:30:51+0000,-39.66,-47.89,-33.12,-48.72,-54.52,-54.49
2021/05/09 23:31:51+0000,-40.29,-46.92,-32.65,-49.16,-53.68,-53.62
2021/05/09 23:32:43+0000,-42.18,-46.75,-33.04,-49.24,-53.73,-54.53
2021/05/09 23:33:35+0000,-41.76,-47.07,-32.94,-48.25,-55.03,-53.80
2021/05/09 23:34:27+0000,-42.29,-47.67,-33.06,-48.49,-54.14,-55.41
2021/05/09 23:35:19+0000,-39.06,-47.71,-33.28,-50.04,-53.96,-55.26
2021/05/09 23:36:11+0000,-42.10,-47.08,-33.14,-49.21,-54.17,-53.91
2021/05/09 23:37:03+0000,-42.01,-46.70,-33.21,-49.70,-53.95,-54.50
2021/05/09 23:37:56+0000,-42.05,-47.53,-32.89,-48.34,-54.26,-54.58
2021/05/09 23:38:48+0000,-42.35,-46.43,-33.44,-49.01,-53.96,-54.78
2021/05/09 23:39:40+0000,-42.42,-46.39,-33.60,-48.98,-54.23,-54.65
2021/05/09 23:40:32+0000,-39.69,-45.46,-33.10,-48.10,-54.29,-55.22
2021/05/09 23:41:32+0000,-41.86,-46.91,-33.48,-48.48,-53.56,-56.04
2021/05/09 23:42:24+0000,-43.24,-46.90,-32.96,-48.05,-53.38,-55.44
2021/05/09 23:43:16+0000,-40.96,-47.63,-32.86,-48.51,-54.25,-55.44
2021/05/09 23:44:08+0000,-41.25,-47.55,-33.02,-49.77,-54.11,-54.97
2021/05/09 23:45:00+0000,-41.77,-47.80,-33.50,-48.58,-55.16,-55.73
2021/05/09 23:45:52+0000,-40.51,-47.28,-34.20,-47.96,-54.65,-55.23
2021/05/09 23:46:44+0000,-39.89,-48.17,-33.26,-48.96,-54.82,-55.18
2021/05/09 23:47:36+0000,-42.14,-47.05,-33.24,-49.36,-54.49,-55.07
2021/05/09 23:48:28+0000,-42.72,-46.49,-32.96,-48.71,-54.22,-56.55
2021/05/09 23:49:20+0000,-40.91,-46.21,-33.00,-49.25,-55.04,-55.72
2021/05/09 23:50:13+0000,-42.29,-46.17,-33.15,-50.70,-54.76,-56.25
2021/05/09 23:51:13+0000,-42.96,-47.14,-32.78,-49.89,-54.87,-56.07
2021/05/09 23:52:05+0000,-42.76,-46.96,-32.94,-50.42,-54.76,-57.19
2021/05/09 23:52:57+0000,-41.88,-44.88,-32.66,-47.45,-54.60,-56.59
2021/05/09 23:53:49+0000,-42.00,-45.43,-33.12,-50.09,-54.11,-55.93
2021/05/09 23:54:41+0000,-42.45,-46.00,-32.90,-48.48,-54.17,-56.00
2021/05/09 23:55:33+0000,-42.55,-46.30,-33.90,-48.48,-54.91,-56.47
2021/05/09 23:56:25+0000,-43.06,-46.25,-33.15,-48.21,-54.47,-56.56
2021/05/09 23:57:17+0000,-42.88,-46.96,-32.94,-49.34,-54.50,-56.47
2021/05/09 23:58:09+0000,-43.06,-47.05,-33.69,-49.23,-54.07,-56.24
2021/05/09 23:59:01+0000,-42.53,-45.22,-33.26,-48.46,-53.99,-56.12
2021/05/09 23:59:53+0000,-42.69,-46.63,-33.12,-48.30,-54.61,-56.44
2021/05/10 00:00:48+0000,-41.90,-46.11,-33.37,-49.59,-54.68,-56.64
2021/05/10 00:01:48+0000,-42.59,-46.51,-32.99,-49.85,-54.76,-55.94
2021/05/10 00:02:40+0000,-42.72,-45.74,-32.85,-49.12,-54.88,-56.40
2021/05/10 00:03:32+0000,-42.52,-46.14,-32.90,-50.00,-54.49,-56.63
2021/05/10 00:04:24+0000,-41.17,-46.04,-32.72,-47.88,-53.84,-56.07
2021/05/10 00:05:16+0000,-42.31,-46.59,-32.58,-48.86,-54.30,-56.34
2021/05/10 00:06:08+0000,-42.16,-47.26,-32.92,-48.59,-54.62,-56.75
2021/05/10 00:07:00+0000,-42.45,-47.43,-32.68,-48.57,-54.92,-57.10
2021/05/10 00:07:52+0000,-42.01,-47.10,-33.06,-48.65,-55.18,-56.06
2021/05/10 00:08:45+0000,-42.30,-47.22,-32.79,-49.11,-54.53,-56.11
2021/05/10 00:09:37+0000,-40.65,-46.80,-33.02,-49.32,-55.01,-56.05
2021/05/10 00:10:29+0000,-40.88,-45.66,-32.72,-48.49,-54.75,-56.39
2021/05/10 00:11:30+0000,-41.41,-47.24,-33.06,-47.80,-53.82,-56.33
2021/05/10 00:12:22+0000,-42.26,-47.14,-32.08,-48.20,-54.48,-56.11
2021/05/10 00:13:14+0000,-41.96,-46.59,-32.37,-48.64,-54.20,-56.24
2021/05/10 00:14:06+0000,-42.36,-46.44,-32.35,-48.87,-54.19,-56.17
2021/05/10 00:14:58+0000,-42.90,-47.39,-32.48,-47.82,-54.40,-56.56
2021/05/10 00:15:50+0000,-42.53,-47.13,-33.24,-48.32,-54.14,-56.60
2021/05/10 00:16:42+0000,-42.19,-45.73,-31.71,-48.12,-55.26,-56.82
2021/05/10 00:17:34+0000,-42.79,-46.54,-32.29,-48.98,-55.39,-56.79
2021/05/10 00:18:26+0000,-41.89,-46.77,-33.28,-48.18,-54.83,-56.07
2021/05/10 00:19:18+0000,-42.86,-46.15,-32.63,-48.58,-54.04,-56.20
2021/05/10 00:20:10+0000,-43.05,-46.03,-32.50,-48.10,-54.66,-56.78
2021/05/10 00:21:10+0000,-43.09,-46.98,-32.52,-48.22,-54.89,-57.19
2021/05/10 00:22:02+0000,-41.81,-46.28,-32.82,-48.28,-54.55,-56.87
2021/05/10 00:22:54+0000,-43.27,-46.26,-32.11,-48.05,-55.83,-56.83
2021/05/10 00:23:46+0000,-41.93,-46.25,-32.99,-48.61,-55.02,-55.94
2021/05/10 00:24:39+0000,-43.48,-45.78,-32.25,-48.48,-53.94,-56.20
2021/05/10 00:25:31+0000,-42.75,-47.64,-32.44,-48.54,-54.13,-55.66
2021/05/10 00:26:23+0000,-42.78,-45.18,-32.87,-48.95,-54.32,-56.04
2021/05/10 00:27:15+0000,-42.26,-46.37,-33.87,-48.52,-54.27,-55.70
2021/05/10 00:28:07+0000,-42.61,-46.13,-33.32,-46.68,-53.24,-56.08
2021/05/10 00:28:59+0000,-42.48,-45.84,-32.82,-47.88,-53.12,-56.05
2021/05/10 00:29:51+0000,-43.49,-46.09,-32.01,-47.82,-53.75,-56.13
2021/05/10 00:30:43+0000,-42.71,-46.91,-31.84,-47.36,-53.66,-55.36
2021/05/10 00:31:44+0000,-42.89,-46.97,-31.41,-47.23,-53.65,-55.41
2021/05/10 00:32:36+0000,-42.31,-47.40,-31.35,-46.59,-53.67,-55.33
2021/05/10 00:33:28+0000,-42.84,-47.98,-32.19,-46.77,-53.65,-55.32
2021/05/10 00:34:20+0000,-43.26,-45.99,-31.25,-48.36,-54.29,-55.89
2021/05/10 00:35:12+0000,-42.54,-46.99,-32.41,-47.60,-53.42,-55.83
2021/05/10 00:36:04+0000,-42.74,-46.02,-32.47,-48.28,-53.45,-54.65
2021/05/10 00:36:56+0000,-42.70,-46.65,-32.34,-47.58,-53.43,-55.85
2021/05/10 00:37:48+0000,-43.50,-46.49,-32.60,-48.31,-53.78,-55.38
2021/05/10 00:38:40+0000,-42.65,-46.37,-32.51,-48.19,-53.83,-56.42
2021/05/10 00:39:32+0000,-41.50,-46.46,-32.15,-47.55,-53.45,-55.79
2021/05/10 00:40:24+0000,-41.14,-46.51,-32.17,-47.93,-53.36,-55.94
2021/05/10 00:41:24+0000,-42.83,-46.18,-32.69,-47.83,-53.61,-56.09
2021/05/10 00:42:16+0000,-43.63,-47.54,-32.48,-48.26,-53.37,-55.71
2021/05/10 00:43:08+0000,-42.96,-45.93,-32.41,-47.91,-53.20,-55.95
2021/05/10 00:44:00+0000,-42.03,-46.79,-32.74,-46.89,-53.49,-55.99
2021/05/10 00:44:52+0000,-42.03,-46.72,-32.28,-47.49,-52.85,-56.02
2021/05/10 00:45:44+0000,-42.81,-47.05,-32.44,-48.11,-53.52,-56.26
2021/05/10 00:46:36+0000,-42.95,-46.73,-32.48,-47.93,-53.11,-55.31
2021/05/10 00:47:28+0000,-41.61,-45.83,-32.44,-48.17,-53.28,-55.88
2021/05/10 00:48:20+0000,-42.40,-46.32,-32.35,-48.28,-53.29,-55.31
2021/05/10 00:49:13+0000,-41.74,-46.07,-33.07,-47.66,-52.48,-55.68
2021/05/10 00:50:05+0000,-42.32,-49.47,-33.15,-49.49,-53.80,-55.29
2021/05/10 00:51:05+0000,-41.72,-49.89,-32.41,-48.29,-52.94,-56.12
2021/05/10 00:51:57+0000,-41.34,-49.53,-33.05,-48.29,-52.81,-55.62
2021/05/10 00:52:49+0000,-42.49,-49.23,-33.12,-49.15,-53.38,-55.69
2021/05/10 00:53:41+0000,-41.26,-49.53,-32.21,-48.31,-52.46,-54.81
2021/05/10 00:54:33+0000,-41.55,-49.81,-32.27,-48.19,-53.85,-55.59
2021/05/10 00:55:25+0000,-41.77,-49.30,-32.51,-48.43,-53.32,-55.32
2021/05/10 00:56:17+0000,-42.71,-49.20,-32.77,-47.91,-53.06,-55.96
2021/05/10 00:57:09+0000,-40.93,-49.61,-32.96,-48.39,-53.75,-55.49
2021/05/10 00:58:01+0000,-41.51,-49.49,-32.91,-48.31,-53.02,-56.38
2021/05/10 00:58:53+0000,-41.87,-48.88,-33.08,-47.48,-53.73,-55.35
2021/05/10 00:59:46+0000,-41.50,-48.96,-32.55,-48.29,-53.34,-55.57
2021/05/10 01:00:38+0000,-41.57,-49.05,-31.78,-49.11,-53.59,-55.45
2021/05/10 01:01:39+0000,-42.01,-49.31,-32.10,-48.40,-53.25,-54.86
2021/05/10 01:02:31+0000,-39.90,-49.02,-32.48,-47.69,-53.50,-54.60
2021/05/10 01:03:23+0000,-42.22,-49.50,-32.78,-47.63,-53.56,-55.64
2021/05/10 01:04:15+0000,-42.10,-49.85,-31.62,-48.70,-53.71,-55.51
2021/05/10 01:05:07+0000,-40.64,-49.69,-32.09,-48.62,-53.72,-54.97
2021/05/10 01:05:59+0000,-41.85,-50.36,-32.24,-47.94,-54.21,-55.66
2021/05/10 01:06:52+0000,-42.34,-50.22,-31.77,-48.06,-54.00,-56.29
2021/05/10 01:07:44+0000,-41.13,-49.41,-31.94,-48.97,-53.47,-55.51
2021/05/10 01:08:36+0000,-41.46,-50.76,-31.52,-47.83,-54.41,-55.21
2021/05/10 01:09:28+0000,-42.66,-50.03,-32.23,-48.02,-53.71,-55.52
2021/05/10 01:10:20+0000,-42.16,-50.60,-32.34,-48.28,-53.51,-55.28
2021/05/10 01:11:18+0000,-41.55,-49.99,-31.31,-48.90,-53.70,-54.42
2021/05/10 01:12:10+0000,-41.27,-50.20,-32.50,-49.23,-53.93,-54.66
2021/05/10 01:13:02+0000,-40.49,-50.21,-31.74,-47.42,-53.25,-54.88
2021/05/10 01:13:54+0000,-40.79,-49.76,-32.20,-48.02,-53.61,-55.13
2021/05/10 01:14:46+0000,-41.60,-48.73,-32.05,-46.94,-54.30,-55.29
2021/05/10 01:15:38+0000,-41.14,-48.50,-31.55,-47.31,-53.56,-55.05
2021/05/10 01:16:30+0000,-40.91,-49.90,-32.10,-46.99,-53.61,-54.58
2021/05/10 01:17:22+0000,-39.55,-50.11,-31.75,-47.34,-53.32,-55.25
2021/05/10 01:18:14+0000,-39.19,-49.38,-31.87,-47.63,-53.55,-55.27
2021/05/10 01:19:06+0000,-41.65,-50.21,-32.46,-48.16,-53.37,-55.27
2021/05/10 01:19:58+0000,-40.52,-50.07,-31.85,-47.54,-52.59,-55.29
2021/05/10 01:20:50+0000,-41.79,-50.45,-31.53,-45.55,-53.42,-55.29
2021/05/10 01:21:53+0000,-41.45,-49.01,-31.18,-47.18,-53.90,-54.79
2021/05/10 01:22:45+0000,-42.26,-49.31,-32.42,-47.87,-53.31,-54.77
2021/05/10 01:23:37+0000,-38.61,-48.33,-31.98,-48.08,-53.67,-55.22
2021/05/10 01:24:29+0000,-40.86,-49.36,-32.33,-48.12,-53.89,-54.75
2021/05/10 01:25:22+0000,-42.48,-50.11,-32.18,-47.94,-53.52,-55.17
2021/05/10 01:26:14+0000,-39.97,-49.29,-31.88,-47.40,-53.58,-54.88
2021/05/10 01:27:06+0000,-41.09,-49.98,-31.83,-47.49,-53.85,-54.99
2021/05/10 01:27:58+0000,-42.01,-48.87,-31.84,-47.66,-53.98,-54.47
2021/05/10 01:28:50+0000,-41.65,-48.14,-31.46,-48.31,-53.56,-55.38
2021/05/10 01:29:42+0000,-39.42,-47.95,-31.80,-46.81,-53.67,-53.95
2021/05/10 01:30:34+0000,-39.67,-49.35,-32.30,-48.08,-53.49,-54.53
2021/05/10 01:31:34+0000,-40.60,-48.60,-32.38,-48.89,-53.48,-55.82
2021/05/10 01:32:26+0000,-41.60,-48.38,-32.00,-47.90,-54.22,-55.64
2021/05/10 01:33:18+0000,-41.37,-49.14,-31.84,-48.28,-53.82,-55.69
2021/05/10 01:34:10+0000,-40.64,-48.48,-31.88,-46.88,-53.78,-56.08
2021/05/10 01:35:02+0000,-39.39,-49.59,-32.07,-46.73,-53.99,-55.73
2021/05/10 01:35:54+0000,-40.23,-49.30,-32.02,-48.07,-54.18,-55.88
2021/05/10 01:36:46+0000,-40.29,-48.18,-32.11,-46.25,-53.60,-55.59
2021/05/10 01:37:38+0000,-41.17,-49.15,-33.13,-46.43,-53.64,-55.50
2021/05/10 01:38:30+0000,-41.53,-48.49,-31.77,-47.52,-54.38,-55.69
2021/05/10 01:39:22+0000,-41.45,-49.78,-32.95,-48.33,-53.79,-55.58
2021/05/10 01:40:15+0000,-41.61,-49.37,-32.64,-46.98,-53.50,-55.52
2021/05/10 01:41:14+0000,-41.86,-49.21,-32.27,-46.34,-53.88,-55.99
2021/05/10 01:42:06+0000,-41.16,-49.28,-31.97,-46.09,-53.23,-55.17
2021/05/10 01:42:58+0000,-40.56,-48.30,-32.23,-47.29,-54.31,-55.52
2021/05/10 01:43:50+0000,-41.64,-49.49,-32.25,-47.70,-53.23,-56.04
2021/05/10 01:44:42+0000,-42.27,-48.60,-32.06,-46.88,-53.22,-55.93
2021/05/10 01:45:34+0000,-41.60,-48.90,-31.54,-46.99,-54.62,-55.61
2021/05/10 01:46:26+0000,-41.48,-49.16,-31.63,-47.24,-54.65,-56.16
2021/05/10 01:47:18+0000,-41.28,-49.08,-31.68,-46.90,-54.54,-55.56
2021/05/10 01:48:10+0000,-41.61,-48.99,-32.10,-46.78,-54.45,-55.48
2021/05/10 01:49:02+0000,-41.79,-48.51,-31.32,-46.70,-54.40,-55.73
2021/05/10 01:49:54+0000,-41.15,-48.69,-31.09,-46.54,-54.38,-55.63
2021/05/10 01:50:46+0000,-42.24,-49.47,-31.07,-45.72,-54.83,-55.70
2021/05/10 01:51:46+0000,-41.06,-48.29,-31.82,-45.38,-54.26,-55.91
2021/05/10 01:52:38+0000,-40.68,-48.81,-31.30,-46.17,-55.27,-55.22
2021/05/10 01:53:30+0000,-42.26,-48.36,-31.16,-45.55,-53.92,-55.87
2021/05/10 01:54:22+0000,-41.76,-50.48,-31.43,-46.96,-54.35,-55.99
2021/05/10 01:55:15+0000,-41.38,-47.74,-31.31,-46.91,-53.40,-55.96
2021/05/10 01:56:07+0000,-40.86,-49.94,-32.38,-47.71,-53.52,-55.06
2021/05/10 01:56:59+0000,-41.71,-48.70,-31.79,-46.83,-53.24,-55.09
2021/05/10 01:57:51+0000,-40.72,-48.72,-32.07,-46.64,-53.82,-55.61
2021/05/10 01:58:43+0000,-41.51,-48.61,-31.89,-47.03,-53.82,-55.85
2021/05/10 01:59:35+0000,-41.45,-48.39,-32.23,-46.84,-53.31,-55.76
2021/05/10 02:00:27+0000,-42.03,-48.86,-31.85,-46.69,-53.42,-55.95
2021/05/10 02:01:28+0000,-41.87,-48.77,-32.42,-45.28,-53.93,-56.26
2021/05/10 02:02:20+0000,-40.27,-49.90,-32.61,-46.91,-53.47,-55.86
2021/05/10 02:03:12+0000,-40.58,-48.50,-32.44,-46.41,-53.29,-56.30
2021/05/10 02:04:04+0000,-39.76,-49.86,-32.47,-47.93,-53.58,-55.78
2021/05/10 02:04:56+0000,-41.16,-49.09,-32.41,-46.77,-53.60,-56.23
2021/05/10 02:05:48+0000,-41.68,-48.82,-32.18,-47.69,-53.18,-55.76
2021/05/10 02:06:40+0000,-40.48,-49.29,-32.86,-46.78,-54.31,-55.81
2021/05/10 02:07:32+0000,-41.30,-49.18,-32.29,-47.68,-54.40,-56.06
2021/05/10 02:08:25+0000,-39.27,-49.49,-32.35,-47.15,-52.92,-55.49
2021/05/10 02:09:17+0000,-39.86,-47.64,-32.11,-47.82,-53.81,-55.46
2021/05/10 02:10:09+0000,-41.80,-48.14,-32.10,-46.21,-54.04,-55.87
2021/05/10 02:11:09+0000,-41.80,-48.75,-32.10,-47.64,-53.85,-55.61
2021/05/10 02:12:01+0000,-40.74,-49.66,-32.52,-46.84,-53.49,-55.93
2021/05/10 02:12:53+0000,-40.99,-49.48,-32.66,-47.46,-53.92,-55.01
2021/05/10 02:13:45+0000,-41.36,-48.68,-32.48,-46.62,-53.51,-55.99
2021/05/10 02:14:37+0000,-41.61,-50.17,-32.67,-47.70,-53.00,-55.80
2021/05/10 02:15:29+0000,-41.77,-48.26,-32.48,-46.25,-53.05,-55.78
2021/05/10 02:16:21+0000,-42.00,-49.73,-32.44,-47.84,-53.89,-56.12
2021/05/10 02:17:13+0000,-39.86,-48.45,-31.94,-46.17,-53.79,-55.75
2021/05/10 02:18:05+0000,-41.16,-49.68,-31.92,-47.67,-53.91,-56.00
2021/05/10 02:18:57+0000,-39.74,-48.40,-32.00,-46.19,-53.47,-56.07
2021/05/10 02:19:49+0000,-40.86,-47.79,-31.85,-48.85,-53.88,-55.76
2021/05/10 02:20:41+0000,-41.16,-47.55,-31.82,-46.42,-53.55,-55.80
2021/05/10 02:21:41+0000,-40.67,-48.36,-32.02,-46.83,-52.84,-55.35
2021/05/10 02:22:33+0000,-41.37,-48.36,-32.28,-47.75,-53.39,-55.57
2021/05/10 02:23:25+0000,-41.61,-48.67,-31.82,-46.59,-53.81,-55.89
2021/05/10 02:24:17+0000,-39.42,-46.89,-32.27,-46.84,-53.55,-56.00
2021/05/10 02:25:09+0000,-41.15,-48.03,-31.59,-47.30,-53.08,-55.97
2021/05/10 02:26:01+0000,-41.49,-48.80,-31.62,-46.53,-53.46,-55.11
2021/05/10 02:26:53+0000,-42.11,-49.06,-31.77,-47.56,-53.75,-56.01
2021/05/10 02:27:46+0000,-41.67,-48.15,-32.12,-46.76,-53.51,-56.17
2021/05/10 02:28:38+0000,-41.74,-49.11,-32.09,-46.07,-53.93,-55.84
2021/05/10 02:29:30+0000,-41.77,-48.50,-31.82,-46.38,-52.97,-55.24
2021/05/10 02:30:22+0000,-41.60,-49.57,-31.92,-47.88,-53.85,-55.58
2021/05/10 02:31:22+0000,-40.81,-50.64,-30.97,-46.66,-54.21,-56.33
2021/05/10 02:32:14+0000,-41.37,-47.16,-31.35,-48.59,-54.77,-56.19
2021/05/10 02:33:06+0000,-41.49,-49.97,-31.80,-47.23,-53.50,-55.74
2021/05/10 02:33:59+0000,-41.08,-48.68,-31.31,-45.84,-54.41,-55.41
2021/05/10 02:34:51+0000,-41.37,-50.04,-30.80,-46.11,-54.41,-55.69
2021/05/10 02:35:43+0000,-41.18,-46.28,-30.87,-48.46,-54.12,-56.67
2021/05/10 02:36:35+0000,-40.82,-47.61,-30.69,-48.25,-54.20,-56.18
2021/05/10 02:37:27+0000,-40.86,-48.62,-31.52,-46.48,-54.22,-55.45
2021/05/10 02:38:19+0000,-42.17,-46.32,-31.18,-48.46,-54.26,-55.29
2021/05/10 02:39:11+0000,-41.53,-47.51,-31.60,-48.53,-53.87,-56.20
2021/05/10 02:40:03+0000,-40.77,-47.47,-32.06,-46.81,-53.76,-55.80
2021/05/10 02:41:03+0000,-39.21,-47.90,-31.14,-47.09,-53.69,-55.12
2021/05/10 02:41:55+0000,-41.24,-48.67,-31.02,-48.15,-53.97,-56.27
2021/05/10 02:42:47+0000,-41.22,-46.67,-31.22,-48.19,-54.78,-56.28
2021/05/10 02:43:39+0000,-40.60,-46.45,-31.65,-47.01,-54.20,-55.90
2021/05/10 02:44:31+0000,-40.55,-48.33,-31.21,-47.09,-54.58,-56.20
2021/05/10 02:45:23+0000,-41.88,-49.07,-31.44,-47.88,-53.82,-55.61
2021/05/10 02:46:15+0000,-41.88,-47.96,-30.86,-47.90,-54.14,-55.90
2021/05/10 02:47:07+0000,-41.90,-49.89,-31.55,-47.42,-54.38,-55.87
2021/05/10 02:47:59+0000,-42.48,-48.56,-31.14,-47.21,-54.28,-55.81
2021/05/10 02:48:51+0000,-42.32,-49.77,-31.41,-47.53,-53.86,-55.63
2021/05/10 02:49:43+0000,-41.59,-45.16,-31.58,-48.51,-53.55,-55.81
2021/05/10 02:50:35+0000,-41.76,-48.84,-31.74,-48.16,-53.30,-55.10
2021/05/10 02:51:35+0000,-39.69,-49.29,-31.69,-49.60,-54.38,-56.18
2021/05/10 02:52:27+0000,-41.89,-48.42,-31.28,-47.36,-53.14,-55.84
2021/05/10 02:53:19+0000,-41.85,-47.08,-31.55,-49.03,-54.23,-56.07
2021/05/10 02:54:11+0000,-42.24,-47.98,-31.92,-48.84,-53.51,-55.93
2021/05/10 02:55:03+0000,-41.03,-47.42,-32.08,-47.88,-53.87,-55.84
2021/05/10 02:55:55+0000,-41.30,-46.02,-31.40,-47.26,-53.91,-55.78
2021/05/10 02:56:47+0000,-41.51,-47.70,-31.78,-48.07,-53.21,-55.94
2021/05/10 02:57:39+0000,-41.83,-47.32,-32.06,-48.24,-53.31,-55.92
2021/05/10 02:58:31+0000,-41.51,-48.78,-31.99,-47.61,-53.47,-56.64
2021/05/10 02:59:23+0000,-41.57,-49.12,-31.42,-48.29,-53.99,-55.22
2021/05/10 03:00:15+0000,-42.83,-47.71,-31.13,-48.67,-54.15,-54.67
2021/05/10 03:01:16+0000,-40.92,-45.62,-31.43,-47.85,-54.09,-56.05
2021/05/10 03:02:08+0000,-40.98,-47.73,-31.35,-48.35,-54.51,-56.41
2021/05/10 03:03:00+0000,-42.46,-48.30,-31.42,-47.14,-53.64,-55.57
2021/05/10 03:03:52+0000,-42.92,-48.22,-31.46,-46.93,-53.92,-55.46
2021/05/10 03:04:44+0000,-42.46,-46.66,-31.17,-47.94,-53.33,-56.23
2021/05/10 03:05:36+0000,-41.72,-49.40,-31.80,-49.15,-54.12,-55.66
2021/05/10 03:06:28+0000,-42.08,-48.04,-31.35,-46.60,-55.00,-55.95
2021/05/10 03:07:20+0000,-41.92,-50.75,-31.03,-46.77,-54.36,-56.21
2021/05/10 03:08:12+0000,-40.37,-47.42,-31.89,-47.88,-54.24,-56.04
2021/05/10 03:09:05+0000,-42.11,-49.96,-31.00,-48.69,-54.01,-56.00
2021/05/10 03:09:57+0000,-41.29,-48.54,-31.55,-46.89,-54.58,-56.36
2021/05/10 03:10:49+0000,-41.20,-48.22,-30.69,-49.12,-43.28,-56.15
2021/05/10 03:11:49+0000,-41.12,-46.93,-31.04,-47.12,-54.25,-55.90
2021/05/10 03:12:41+0000,-41.54,-46.05,-31.29,-48.90,-54.38,-55.88
2021/05/10 03:13:33+0000,-41.75,-47.54,-31.45,-49.49,-54.00,-54.89
2021/05/10 03:14:25+0000,-41.06,-47.85,-31.96,-48.65,-53.85,-55.57
2021/05/10 03:15:17+0000,-41.50,-47.44,-30.97,-47.97,-54.45,-55.73
2021/05/10 03:16:09+0000,-42.30,-45.71,-31.13,-44.66,-54.56,-55.64
2021/05/10 03:17:01+0000,-41.65,-47.51,-31.48,-47.70,-53.68,-55.47
2021/05/10 03:17:53+0000,-42.59,-48.63,-30.65,-47.66,-54.35,-56.15
2021/05/10 03:18:46+0000,-40.36,-47.27,-30.99,-45.94,-54.73,-55.70
2021/05/10 03:19:38+0000,-41.94,-46.71,-31.35,-46.48,-53.74,-55.80
2021/05/10 03:20:30+0000,-41.17,-49.17,-31.61,-47.56,-54.40,-56.08
2021/05/10 03:21:29+0000,-40.67,-46.17,-30.98,-48.04,-54.59,-56.12
2021/05/10 03:22:21+0000,-40.62,-47.03,-30.76,-48.26,-54.20,-55.90
2021/05/10 03:23:13+0000,-40.52,-44.13,-31.16,-48.51,-54.01,-54.91
2021/05/10 03:24:05+0000,-41.09,-46.46,-31.21,-48.79,-54.47,-56.37
2021/05/10 03:24:57+0000,-40.97,-46.11,-31.46,-48.48,-53.03,-55.49
2021/05/10 03:25:49+0000,-41.13,-44.14,-30.87,-49.43,-53.81,-54.62
2021/05/10 03:26:41+0000,-40.62,-44.80,-31.49,-46.66,-53.79,-54.94
2021/05/10 03:27:33+0000,-41.63,-45.00,-31.21,-48.82,-53.65,-54.88
2021/05/10 03:28:25+0000,-41.51,-44.55,-31.48,-48.78,-54.36,-55.46
2021/05/10 03:29:17+0000,-42.34,-45.71,-30.86,-46.26,-53.98,-55.76
2021/05/10 03:30:09+0000,-41.15,-47.42,-30.63,-48.39,-53.43,-56.08
2021/05/10 03:31:09+0000,-41.62,-44.38,-31.20,-44.42,-54.11,-55.90
2021/05/10 03:32:01+0000,-41.77,-45.09,-30.79,-47.46,-54.11,-55.43
2021/05/10 03:32:53+0000,-41.97,-47.11,-31.12,-47.68,-53.86,-55.64
2021/05/10 03:33:45+0000,-41.77,-47.26,-31.09,-45.11,-53.75,-55.38
2021/05/10 03:34:37+0000,-40.69,-45.54,-31.15,-46.46,-54.00,-55.69
2021/05/10 03:35:29+0000,-41.40,-47.16,-31.06,-46.06,-54.20,-55.59
2021/05/10 03:36:21+0000,-41.09,-47.85,-31.26,-45.02,-54.32,-55.71
2021/05/10 03:37:13+0000,-41.87,-44.40,-31.20,-48.06,-53.46,-55.97
2021/05/10 03:38:05+0000,-41.93,-47.13,-30.16,-47.55,-54.44,-55.33
2021/05/10 03:38:58+0000,-40.93,-44.68,-32.04,-45.38,-52.46,-55.81
2021/05/10 03:39:50+0000,-41.21,-44.00,-32.01,-49.13,-53.44,-55.92
2021/05/10 03:40:42+0000,-41.96,-44.89,-32.27,-44.95,-53.26,-55.70
2021/05/10 03:41:42+0000,-41.58,-45.80,-31.94,-47.30,-54.01,-55.03
2021/05/10 03:42:34+0000,-41.67,-44.62,-31.05,-49.16,-54.57,-55.49
2021/05/10 03:43:26+0000,-40.53,-44.27,-31.20,-46.99,-53.86,-55.67
2021/05/10 03:44:18+0000,-41.04,-45.02,-31.15,-50.33,-53.63,-55.70
2021/05/10 03:45:10+0000,-42.36,-44.05,-30.89,-47.88,-53.73,-55.88
2021/05/10 03:46:02+0000,-41.39,-44.26,-31.19,-44.66,-53.66,-55.96
2021/05/10 03:46:54+0000,-40.97,-44.86,-31.59,-41.75,-53.82,-55.67
2021/05/10 03:47:46+0000,-41.24,-44.89,-31.81,-47.16,-53.46,-56.22
2021/05/10 03:48:38+0000,-41.98,-44.67,-31.24,-49.52,-53.80,-55.13
2021/05/10 03:49:31+0000,-41.81,-45.47,-31.30,-45.60,-53.48,-55.40
2021/05/10 03:50:23+0000,-42.05,-44.90,-31.80,-40.60,-54.07,-55.77
2021/05/10 03:51:23+0000,-40.84,-46.69,-31.66,-42.76,-53.80,-54.98
2021/05/10 03:52:15+0000,-41.21,-44.95,-31.61,-46.87,-53.73,-55.07
2021/05/10 03:53:07+0000,-42.18,-46.83,-30.90,-44.51,-53.26,-55.10
2021/05/10 03:53:59+0000,-41.72,-44.79,-31.43,-46.34,-53.46,-56.02
2021/05/10 03:54:51+0000,-41.29,-44.70,-31.44,-47.68,-53.75,-55.27
2021/05/10 03:55:43+0000,-41.46,-44.92,-31.35,-48.06,-53.86,-55.99
2021/05/10 03:56:35+0000,-41.20,-46.42,-31.70,-47.83,-52.87,-55.83
2021/05/10 03:57:27+0000,-40.97,-45.76,-31.92,-44.91,-53.06,-56.08
2021/05/10 03:58:19+0000,-40.83,-44.70,-32.16,-48.30,-53.15,-56.06
2021/05/10 03:59:11+0000,-41.53,-44.86,-31.68,-45.64,-53.82,-55.42
2021/05/10 04:00:03+0000,-41.46,-45.40,-31.41,-48.38,-53.40,-55.88
2021/05/10 04:01:04+0000,-41.51,-46.00,-31.01,-49.16,-53.63,-56.19
2021/05/10 04:01:56+0000,-41.17,-45.73,-31.36,-45.63,-53.17,-55.78
2021/05/10 04:02:48+0000,-40.45,-44.61,-30.64,-49.32,-53.91,-55.11
2021/05/10 04:03:40+0000,-41.15,-45.04,-31.10,-47.18,-54.05,-55.78
2021/05/10 04:04:32+0000,-40.35,-46.64,-31.46,-45.91,-54.03,-55.53
2021/05/10 04:05:24+0000,-39.94,-45.93,-30.60,-46.07,-53.65,-55.37
2021/05/10 04:06:16+0000,-39.71,-44.45,-31.18,-41.69,-53.82,-56.00
2021/05/10 04:07:08+0000,-42.37,-44.83,-31.28,-43.77,-53.93,-56.14
2021/05/10 04:08:00+0000,-40.00,-46.12,-31.37,-47.96,-53.33,-55.56
2021/05/10 04:08:52+0000,-39.40,-46.79,-31.51,-43.31,-53.27,-55.15
2021/05/10 04:09:44+0000,-41.02,-45.45,-30.96,-45.75,-53.93,-56.25
2021/05/10 04:10:36+0000,-39.53,-47.92,-31.14,-45.80,-52.18,-55.72
2021/05/10 04:11:37+0000,-42.20,-48.19,-31.28,-44.83,-54.20,-55.94
2021/05/10 04:12:29+0000,-40.57,-43.01,-30.88,-46.43,-53.46,-56.00
2021/05/10 04:13:21+0000,-42.26,-45.27,-31.06,-47.79,-53.59,-56.27
2021/05/10 04:14:13+0000,-40.89,-44.03,-31.31,-47.71,-53.89,-56.14
2021/05/10 04:15:05+0000,-40.53,-44.90,-30.82,-44.77,-53.82,-55.67
2021/05/10 04:15:57+0000,-41.69,-43.68,-31.66,-47.68,-53.56,-55.53
2021/05/10 04:16:49+0000,-41.53,-43.46,-31.19,-48.39,-53.78,-55.59
2021/05/10 04:17:41+0000,-39.62,-43.49,-31.17,-42.48,-54.02,-55.67
2021/05/10 04:18:33+0000,-40.85,-44.95,-30.61,-48.85,-54.50,-55.60
2021/05/10 04:19:25+0000,-40.40,-44.24,-30.99,-48.54,-53.80,-54.91
2021/05/10 04:20:17+0000,-41.00,-43.93,-31.54,-42.08,-53.60,-55.27
2021/05/10 04:21:18+0000,-40.41,-42.93,-31.21,-44.20,-53.95,-55.24
2021/05/10 04:22:10+0000,-40.90,-42.67,-31.06,-44.72,-53.60,-55.83
2021/05/10 04:23:02+0000,-40.55,-43.82,-31.06,-46.62,-54.01,-55.13
2021/05/10 04:23:54+0000,-39.70,-44.78,-31.44,-46.88,-53.45,-55.84
2021/05/10 04:24:46+0000,-40.01,-43.29,-31.32,-43.30,-53.88,-55.53
2021/05/10 04:25:38+0000,-40.52,-44.05,-31.46,-41.09,-53.50,-55.55
2021/05/10 04:26:30+0000,-40.48,-44.12,-31.46,-46.36,-54.40,-55.73
2021/05/10 04:27:22+0000,-41.00,-46.58,-31.25,-46.56,-53.94,-54.90
2021/05/10 04:28:14+0000,-41.17,-44.41,-31.10,-45.03,-53.43,-55.44
2021/05/10 04:29:06+0000,-40.79,-45.39,-31.51,-45.46,-53.85,-55.83
2021/05/10 04:29:58+0000,-40.92,-45.65,-31.65,-48.96,-54.50,-56.52
2021/05/10 04:30:50+0000,-34.13,-44.42,-30.93,-49.86,-54.22,-56.25
2021/05/10 04:31:50+0000,-37.39,-42.18,-31.04,-50.49,-54.70,-56.17
2021/05/10 04:32:42+0000,-39.12,-44.90,-31.59,-43.56,-53.96,-56.13
2021/05/10 04:33:34+0000,-36.90,-45.61,-30.61,-48.40,-54.75,-56.74
2021/05/10 04:34:26+0000,-38.90,-44.43,-31.23,-49.17,-54.24,-56.45
2021/05/10 04:35:18+0000,-37.90,-44.32,-31.27,-46.00,-54.45,-56.33
2021/05/10 04:36:10+0000,-40.14,-43.78,-31.41,-46.78,-55.61,-56.71
2021/05/10 04:37:02+0000,-39.68,-45.44,-31.53,-50.48,-55.76,-57.12
2021/05/10 04:37:54+0000,-38.90,-45.64,-32.16,-50.70,-55.36,-56.26
2021/05/10 04:38:46+0000,-41.76,-43.83,-32.51,-47.97,-54.92,-56.44
2021/05/10 04:39:38+0000,-41.72,-44.64,-31.81,-48.09,-53.49,-56.14
2021/05/10 04:40:30+0000,-40.98,-44.79,-31.45,-50.55,-54.05,-55.83
2021/05/10 04:41:30+0000,-41.62,-45.46,-31.20,-50.61,-53.91,-56.34
2021/05/10 04:42:22+0000,-40.16,-46.09,-31.64,-48.91,-54.27,-56.59
2021/05/10 04:43:14+0000,-41.61,-43.42,-31.89,-49.57,-54.54,-56.22
2021/05/10 04:44:06+0000,-41.62,-45.41,-31.79,-49.72,-54.51,-56.04